Погода в Терси

Россия / Республика Татарстан     56°19′45″N   52°53′17″E
темп.,
°C
ветер,
м/с
пор.,
м/с
влажн.,
%
обл.,
%
осадки,
мм/ч
давл.,
гПа
погр.,
м
15 июня, вт
вт1500:00+18з1287100 1.8 101412
03:00+17зсз1191100 2.8 101411
06:00+20з118183 0.1 1015171
09:00+23юз237479 0.8 1016573
12:00+24ююз3368100 2.4 1015757
15:00+22юз3480100 3.8 1015445
18:00+21юз248575 0.1 1014145
21:00+18ю2288100 0.1 101413
16 июня, ср
ср1600:00+17ююз11905 0.0 101311
03:00+16юв119298 0.0 101311
06:00+20вюв228399 0.0 1013164
09:00+25юв456913 0.0 1012609
12:00+28юв565588 0.0 1010862
15:00+28ююв586097 0.0 10081391
18:00+24ююз510742 0.0 1007397
21:00+19юз37882 0.4 1007123
17 июня, чт
чт1700:00+17зюз239459 1.1 100647
03:00+15ссз5109617 2.3 1007324
06:00+17ссз7109142 0.0 1008699
09:00+19ссз8106490 0.1 10101177
12:00+21ссз89491 0.0 10121958
15:00+21ссз79535 0.0 10132395
18:00+17сз5106196 0.0 1014356
21:00+14сз413675 0.0 1016341
18 июня, пт
пт1800:00+12сз513735 0.0 1017347
03:00+10ссз5128412 0.0 1018343
06:00+12с69735 0.0 1020481
09:00+16с57545 0.0 10221423
12:00+19ссз574518 0.0 10222212
15:00+20ссз574414 0.0 10222237
18:00+17сз596220 0.0 1023360
21:00+12сз337197 0.0 102429
19 июня, сб
сб1900:00+12з326894 0.0 102529
03:00+11з377775 0.0 1025114
06:00+15з5117444 0.0 1024329
09:00+21з796048 0.0 1022740
12:00+24з8106037 0.1 10201760
15:00+24з71163100 0.2 10181072
18:00+23з61267100 0.0 1017458
21:00+20з5137512 0.0 1016360